Time,TemperatureF,DewpointF,PressureIn,WindDirection,WindDirectionDegrees,WindSpeedMPH,WindSpeedGustMPH,Humidity,HourlyPrecipIn,Conditions,Clouds,dailyrainin,SolarRadiationWatts/m^2,SoftwareType,DateUTC
2013-01-20 00:04:00,32.0,29.0,-100.00,SE,141,0.0,0.0,88,0.00,,,0.00,0.000000,,2013-01-20 05:04:00,
2013-01-20 00:33:00,31.0,29.0,-100.00,NE,35,1.0,1.0,92,0.00,,,0.00,0.000000,,2013-01-20 05:33:00,
2013-01-20 00:43:00,31.0,29.0,-100.00,NE,35,1.0,1.0,92,0.00,,,0.00,0.000000,,2013-01-20 05:43:00,
2013-01-20 00:53:00,31.0,29.0,-100.00,NE,35,1.0,1.0,92,0.00,,,0.00,0.000000,,2013-01-20 05:53:00,
2013-01-20 01:02:00,31.0,29.0,-100.00,NE,35,1.0,1.0,92,0.00,,,0.00,0.000000,,2013-01-20 06:02:00,
2013-01-20 01:33:00,30.0,28.0,-100.00,South,174,0.0,0.0,93,0.00,,,0.00,0.000000,,2013-01-20 06:33:00,
2013-01-20 01:43:00,30.0,28.0,-100.00,South,174,0.0,0.0,93,0.00,,,0.00,0.000000,,2013-01-20 06:43:00,
2013-01-20 01:53:00,30.0,28.0,-100.00,South,174,0.0,0.0,93,0.00,,,0.00,0.000000,,2013-01-20 06:53:00,
2013-01-20 02:02:00,30.0,28.0,-100.00,South,174,0.0,0.0,93,0.00,,,0.00,0.000000,,2013-01-20 07:02:00,
2013-01-20 02:32:00,29.0,27.0,-100.00,SE,131,0.0,0.0,93,0.00,,,0.00,0.000000,,2013-01-20 07:32:00,
2013-01-20 02:42:00,29.0,27.0,-100.00,SE,131,0.0,0.0,93,0.00,,,0.00,0.000000,,2013-01-20 07:42:00,
2013-01-20 02:52:00,29.0,27.0,-100.00,SE,131,0.0,0.0,93,0.00,,,0.00,0.000000,,2013-01-20 07:52:00,
2013-01-20 03:02:00,29.0,27.0,-100.00,SE,131,0.0,0.0,93,0.00,,,0.00,0.000000,,2013-01-20 08:02:00,
2013-01-20 03:32:00,28.0,27.0,-100.00,NE,37,0.0,0.0,95,0.00,,,0.00,0.000000,,2013-01-20 08:32:00,
2013-01-20 03:42:00,28.0,27.0,-100.00,NE,37,0.0,0.0,95,0.00,,,0.00,0.000000,,2013-01-20 08:42:00,
2013-01-20 03:53:00,28.0,27.0,-100.00,NE,37,0.0,0.0,95,0.00,,,0.00,0.000000,,2013-01-20 08:53:00,
2013-01-20 04:02:00,28.0,27.0,-100.00,NE,37,0.0,0.0,95,0.00,,,0.00,0.000000,,2013-01-20 09:02:00,
2013-01-20 04:33:00,28.0,27.0,-100.00,South,172,0.0,0.0,94,0.00,,,0.00,0.000000,,2013-01-20 09:33:00,
2013-01-20 04:42:00,28.0,27.0,-100.00,South,172,0.0,0.0,94,0.00,,,0.00,0.000000,,2013-01-20 09:42:00,
2013-01-20 04:53:00,28.0,27.0,-100.00,South,172,0.0,0.0,94,0.00,,,0.00,0.000000,,2013-01-20 09:53:00,
2013-01-20 05:02:00,28.0,27.0,-100.00,South,172,0.0,0.0,94,0.00,,,0.00,0.000000,,2013-01-20 10:02:00,
2013-01-20 05:33:00,27.0,26.0,-100.00,SSE,166,0.0,0.0,95,0.00,,,0.00,0.000000,,2013-01-20 10:33:00,
2013-01-20 05:42:00,27.0,26.0,-100.00,SSE,166,0.0,0.0,95,0.00,,,0.00,0.000000,,2013-01-20 10:42:00,
2013-01-20 05:53:00,27.0,26.0,-100.00,SSE,166,0.0,0.0,95,0.00,,,0.00,0.000000,,2013-01-20 10:53:00,
2013-01-20 06:03:00,27.0,26.0,-100.00,SSE,166,0.0,0.0,95,0.00,,,0.00,0.000000,,2013-01-20 11:03:00,
2013-01-20 06:33:00,28.0,27.0,-100.00,North,353,0.0,0.0,96,0.00,,,0.00,0.000000,,2013-01-20 11:33:00,
2013-01-20 06:43:00,28.0,27.0,-100.00,North,353,0.0,0.0,96,0.00,,,0.00,0.000000,,2013-01-20 11:43:00,
2013-01-20 06:54:00,28.0,27.0,-100.00,North,353,0.0,0.0,96,0.00,,,0.00,0.000000,,2013-01-20 11:54:00,
2013-01-20 07:03:00,28.0,27.0,-100.00,North,353,0.0,0.0,96,0.00,,,0.00,0.000000,,2013-01-20 12:03:00,
2013-01-20 07:33:00,27.0,26.0,-100.00,NW,321,0.0,0.0,95,0.00,,,0.00,0.000000,,2013-01-20 12:33:00,
2013-01-20 07:43:00,27.0,26.0,-100.00,NW,321,0.0,0.0,95,0.00,,,0.00,0.000000,,2013-01-20 12:43:00,
2013-01-20 07:53:00,27.0,26.0,-100.00,NW,321,0.0,0.0,95,0.00,,,0.00,0.000000,,2013-01-20 12:53:00,
2013-01-20 08:03:00,27.0,26.0,-100.00,NW,321,0.0,0.0,95,0.00,,,0.00,0.000000,,2013-01-20 13:03:00,
2013-01-20 08:33:00,27.0,26.0,-100.00,South,184,0.0,0.0,94,0.00,,,0.00,3.000000,,2013-01-20 13:33:00,
2013-01-20 08:43:00,27.0,26.0,-100.00,South,184,0.0,0.0,94,0.00,,,0.00,3.000000,,2013-01-20 13:43:00,
2013-01-20 08:53:00,27.0,26.0,-100.00,South,184,0.0,0.0,94,0.00,,,0.00,3.000000,,2013-01-20 13:53:00,
2013-01-20 09:03:00,27.0,26.0,-100.00,South,184,0.0,0.0,94,0.00,,,0.00,3.000000,,2013-01-20 14:03:00,
2013-01-20 09:33:00,31.0,30.0,-100.00,SW,220,0.0,0.0,95,0.00,,,0.00,58.000000,,2013-01-20 14:33:00,
2013-01-20 09:43:00,31.0,30.0,-100.00,SW,220,0.0,0.0,95,0.00,,,0.00,58.000000,,2013-01-20 14:43:00,
2013-01-20 09:53:00,31.0,30.0,-100.00,SW,220,0.0,0.0,95,0.00,,,0.00,58.000000,,2013-01-20 14:53:00,
2013-01-20 10:03:00,31.0,30.0,-100.00,SW,220,0.0,0.0,95,0.00,,,0.00,58.000000,,2013-01-20 15:03:00,
2013-01-20 10:33:00,45.0,39.0,-100.00,South,173,0.0,0.0,79,0.00,,,0.00,254.000000,,2013-01-20 15:33:00,
2013-01-20 10:43:00,45.0,39.0,-100.00,South,173,0.0,0.0,79,0.00,,,0.00,254.000000,,2013-01-20 15:43:00,
2013-01-20 10:53:00,45.0,39.0,-100.00,South,173,0.0,0.0,79,0.00,,,0.00,254.000000,,2013-01-20 15:53:00,
2013-01-20 11:03:00,45.0,39.0,-100.00,South,173,0.0,0.0,79,0.00,,,0.00,254.000000,,2013-01-20 16:03:00,
2013-01-20 11:33:00,53.0,35.0,-100.00,WSW,248,4.0,7.0,51,0.00,,,0.00,398.000000,,2013-01-20 16:33:00,
2013-01-20 11:43:00,53.0,35.0,-100.00,WSW,248,4.0,7.0,51,0.00,,,0.00,398.000000,,2013-01-20 16:43:00,
2013-01-20 11:53:00,53.0,35.0,-100.00,WSW,248,4.0,7.0,51,0.00,,,0.00,398.000000,,2013-01-20 16:53:00,
2013-01-20 12:03:00,53.0,35.0,-100.00,WSW,248,4.0,7.0,51,0.00,,,0.00,398.000000,,2013-01-20 17:03:00,
2013-01-20 12:33:00,55.0,35.0,-100.00,SW,219,2.0,10.0,47,0.00,,,0.00,504.000000,,2013-01-20 17:33:00,
2013-01-20 12:43:00,55.0,35.0,-100.00,SW,219,2.0,10.0,47,0.00,,,0.00,504.000000,,2013-01-20 17:43:00,
2013-01-20 12:53:00,55.0,35.0,-100.00,SW,219,2.0,10.0,47,0.00,,,0.00,504.000000,,2013-01-20 17:53:00,
2013-01-20 13:03:00,55.0,35.0,-100.00,SW,219,2.0,10.0,47,0.00,,,0.00,504.000000,,2013-01-20 18:03:00,
2013-01-20 13:33:00,57.0,36.0,-100.00,NW,317,2.0,7.0,46,0.00,,,0.00,558.000000,,2013-01-20 18:33:00,
2013-01-20 13:43:00,57.0,36.0,-100.00,NW,317,2.0,7.0,46,0.00,,,0.00,558.000000,,2013-01-20 18:43:00,
2013-01-20 13:53:00,57.0,36.0,-100.00,NW,317,2.0,7.0,46,0.00,,,0.00,558.000000,,2013-01-20 18:53:00,
2013-01-20 14:03:00,57.0,36.0,-100.00,NW,317,2.0,7.0,46,0.00,,,0.00,558.000000,,2013-01-20 19:03:00,
2013-01-20 14:33:00,58.0,34.0,-100.00,SSW,200,3.0,9.0,41,0.00,,,0.00,553.000000,,2013-01-20 19:33:00,
2013-01-20 14:43:00,58.0,34.0,-100.00,SSW,200,3.0,9.0,41,0.00,,,0.00,553.000000,,2013-01-20 19:43:00,
2013-01-20 14:53:00,58.0,34.0,-100.00,SSW,200,3.0,9.0,41,0.00,,,0.00,553.000000,,2013-01-20 19:53:00,
2013-01-20 15:03:00,58.0,34.0,-100.00,SSW,200,3.0,9.0,41,0.00,,,0.00,553.000000,,2013-01-20 20:03:00,
2013-01-20 15:33:00,61.0,33.0,-100.00,West,272,2.0,9.0,35,0.00,,,-99.99,488.000000,,2013-01-20 20:33:00,
2013-01-20 15:42:00,61.0,33.0,-100.00,West,272,2.0,9.0,35,0.00,,,-99.99,488.000000,,2013-01-20 20:42:00,
2013-01-20 15:54:00,61.0,33.0,-100.00,West,272,2.0,9.0,35,0.00,,,-99.99,488.000000,,2013-01-20 20:54:00,
2013-01-20 16:04:00,61.0,33.0,-100.00,West,272,2.0,9.0,35,0.00,,,-99.99,488.000000,,2013-01-20 21:04:00,
2013-01-20 16:33:00,60.0,28.0,-100.00,WNW,301,4.0,10.0,30,0.00,,,0.00,374.000000,,2013-01-20 21:33:00,
2013-01-20 16:43:00,60.0,28.0,-100.00,WNW,301,4.0,10.0,30,0.00,,,0.00,374.000000,,2013-01-20 21:43:00,
2013-01-20 16:53:00,60.0,28.0,-100.00,WNW,301,4.0,10.0,30,0.00,,,0.00,374.000000,,2013-01-20 21:53:00,
2013-01-20 17:03:00,60.0,28.0,-100.00,WNW,301,4.0,10.0,30,0.00,,,0.00,374.000000,,2013-01-20 22:03:00,
2013-01-20 17:33:00,58.0,27.0,-100.00,NW,324,7.0,11.0,30,0.00,,,0.00,221.000000,,2013-01-20 22:33:00,
2013-01-20 17:43:00,58.0,27.0,-100.00,NW,324,7.0,11.0,30,0.00,,,0.00,221.000000,,2013-01-20 22:43:00,
2013-01-20 17:53:00,58.0,27.0,-100.00,NW,324,7.0,11.0,30,0.00,,,0.00,221.000000,,2013-01-20 22:53:00,
2013-01-20 18:03:00,58.0,27.0,-100.00,NW,324,7.0,11.0,30,0.00,,,0.00,221.000000,,2013-01-20 23:03:00,
2013-01-20 18:33:00,51.0,21.0,-100.00,NNW,327,1.0,9.0,31,0.00,,,0.00,50.000000,,2013-01-20 23:33:00,
2013-01-20 18:43:00,51.0,21.0,-100.00,NNW,327,1.0,9.0,31,0.00,,,0.00,50.000000,,2013-01-20 23:43:00,
2013-01-20 18:53:00,51.0,21.0,-100.00,NNW,327,1.0,9.0,31,0.00,,,0.00,50.000000,,2013-01-20 23:53:00,
2013-01-20 19:03:00,51.0,21.0,-100.00,NNW,327,1.0,9.0,31,0.00,,,0.00,50.000000,,2013-01-21 00:03:00,
2013-01-20 19:33:00,42.0,29.0,-100.00,East,86,0.0,0.0,59,0.00,,,0.00,0.000000,,2013-01-21 00:33:00,
2013-01-20 19:43:00,42.0,29.0,-100.00,East,86,0.0,0.0,59,0.00,,,0.00,0.000000,,2013-01-21 00:43:00,
2013-01-20 19:54:00,42.0,29.0,-100.00,East,86,0.0,0.0,59,0.00,,,0.00,0.000000,,2013-01-21 00:54:00,
2013-01-20 20:03:00,42.0,29.0,-100.00,East,86,0.0,0.0,59,0.00,,,0.00,0.000000,,2013-01-21 01:03:00,
2013-01-20 20:33:00,38.0,25.0,-100.00,ESE,115,0.0,0.0,59,0.00,,,0.00,0.000000,,2013-01-21 01:33:00,
2013-01-20 20:43:00,38.0,25.0,-100.00,ESE,115,0.0,0.0,59,0.00,,,0.00,0.000000,,2013-01-21 01:43:00,
2013-01-20 20:53:00,38.0,25.0,-100.00,ESE,115,0.0,0.0,59,0.00,,,0.00,0.000000,,2013-01-21 01:53:00,
2013-01-20 21:03:00,38.0,25.0,-100.00,ESE,115,0.0,0.0,59,0.00,,,0.00,0.000000,,2013-01-21 02:03:00,
2013-01-20 21:33:00,33.0,29.0,-100.00,ESE,119,0.0,0.0,85,0.00,,,0.00,0.000000,,2013-01-21 02:33:00,
2013-01-20 21:43:00,33.0,29.0,-100.00,ESE,119,0.0,0.0,85,0.00,,,0.00,0.000000,,2013-01-21 02:43:00,
2013-01-20 21:53:00,33.0,29.0,-100.00,ESE,119,0.0,0.0,85,0.00,,,0.00,0.000000,,2013-01-21 02:53:00,
2013-01-20 22:03:00,33.0,29.0,-100.00,ESE,119,0.0,0.0,85,0.00,,,0.00,0.000000,,2013-01-21 03:03:00,
2013-01-20 22:33:00,32.0,28.0,-100.00,ESE,110,0.0,0.0,85,0.00,,,0.00,0.000000,,2013-01-21 03:33:00,
2013-01-20 22:43:00,32.0,28.0,-100.00,ESE,110,0.0,0.0,85,0.00,,,0.00,0.000000,,2013-01-21 03:43:00,
2013-01-20 22:54:00,32.0,28.0,-100.00,ESE,110,0.0,0.0,85,0.00,,,0.00,0.000000,,2013-01-21 03:54:00,
2013-01-20 23:03:00,32.0,28.0,-100.00,ESE,110,0.0,0.0,85,0.00,,,0.00,0.000000,,2013-01-21 04:03:00,
2013-01-20 23:33:00,30.0,27.0,-100.00,ENE,73,0.0,0.0,88,0.00,,,0.00,0.000000,,2013-01-21 04:33:00,
2013-01-20 23:43:00,30.0,27.0,-100.00,ENE,73,0.0,0.0,88,0.00,,,0.00,0.000000,,2013-01-21 04:43:00,
2013-01-20 23:53:00,30.0,27.0,-100.00,ENE,73,0.0,0.0,88,0.00,,,0.00,0.000000,,2013-01-21 04:53:00,